Volver al catálogo

STARLINK-37232

ActivoComunicacionesVLEO
NORAD 69515·PAYLOAD·🇺🇸 United States

Lanzado Jun 12, 2026 desde Cape Canaveral Space Force Station

Loading…

Próximos Pases (próximas 24 horas)

TLE

ActualizadoSource: CelesTrak SupGP

Época: Sep 15, 2026, 04:19 UTC

1 69515C 26133H   26258.18034722 -.00051290  00000+0 -15154-2 0  2585
2 69515  53.1563 254.6966 0001485  88.8226 352.5379 15.34416044    18

Sigue STARLINK-37232 en tiempo real con AllMySat

Download on the App Store